| time (UTC) | temp C | wind direction | speed KPH | gust KPH | rain 1hr cm | rain 24hr cm | rain mn cm | humidity % | barometer mb |
| 20260506044516 | 20 | 167 | 1.6 | 11.3 | 0.00 | 0.20 | 0.00 | 63 | 1009.2 |
| 20260506043011 | 20 | 227 | 3.2 | 12.9 | 0.00 | 0.20 | 0.00 | 62 | 1009.3 |
| 20260506041509 | 20 | 223 | 1.6 | 16.1 | 0.00 | 0.20 | 0.00 | 62 | 1009.3 |
| 20260506040007 | 20 | 208 | 1.6 | 16.1 | 0.00 | 0.20 | 0.20 | 61 | 1009.1 |
| 20260506034507 | 21 | 199 | 3.2 | 17.7 | 0.00 | 0.20 | 0.20 | 59 | 1009.2 |
| 20260506033006 | 21 | 177 | 4.8 | 12.9 | 0.00 | 0.20 | 0.20 | 58 | 1009.0 |
| 20260506031504 | 21 | 223 | 3.2 | 8.0 | 0.00 | 0.20 | 0.20 | 55 | 1008.9 |
| 20260506030004 | 22 | 216 | 6.4 | 16.1 | 0.00 | 0.20 | 0.20 | 54 | 1008.9 |
| 20260506024504 | 22 | 210 | 3.2 | 12.9 | 0.00 | 0.20 | 0.20 | 52 | 1008.8 |
| 20260506023001 | 22 | 219 | 4.8 | 17.7 | 0.00 | 0.20 | 0.20 | 49 | 1008.8 |
| 20260506021502 | 23 | 210 | 6.4 | 14.5 | 0.00 | 0.20 | 0.20 | 47 | 1008.7 |
| 20260506020126 | 23 | 227 | 1.6 | 14.5 | 0.00 | 0.20 | 0.20 | 46 | 1008.6 |
| 20260506014600 | 23 | 206 | 3.2 | 8.0 | 0.00 | 0.20 | 0.20 | 46 | 1008.5 |
| 20260506013059 | 23 | 209 | 3.2 | 11.3 | 0.00 | 0.20 | 0.20 | 44 | 1008.3 |
| 20260506011602 | 23 | 237 | 3.2 | 17.7 | 0.00 | 0.20 | 0.20 | 43 | 1008.1 |
| 20260506010058 | 24 | 188 | 4.8 | 12.9 | 0.00 | 0.20 | 0.20 | 42 | 1008.0 |
| 20260506004558 | 24 | 221 | 1.6 | 8.0 | 0.00 | 0.20 | 0.20 | 39 | 1007.9 |
| 20260506003057 | 24 | 198 | 3.2 | 6.4 | 0.00 | 0.20 | 0.20 | 38 | 1007.8 |
| 20260506001607 | 25 | 237 | 1.6 | 16.1 | 0.00 | 0.20 | 0.20 | 37 | 1007.6 |
| 20260506000122 | 25 | 216 | 8.0 | 16.1 | 0.00 | 0.20 | 0.20 | 36 | 1007.4 |
| 20260505234607 | 25 | 241 | 4.8 | 14.5 | 0.00 | 0.20 | 0.20 | 35 | 1007.4 |
| 20260505233055 | 25 | 216 | 4.8 | 17.7 | 0.00 | 0.20 | 0.20 | 35 | 1007.4 |
| 20260505231557 | 26 | 248 | 3.2 | 16.1 | 0.00 | 0.20 | 0.20 | 34 | 1007.1 |
| 20260505230053 | 26 | 236 | 8.0 | 20.9 | 0.00 | 0.20 | 0.20 | 33 | 1007.0 |
| 20260505224553 | 26 | 257 | 6.4 | 19.3 | 0.00 | 0.20 | 0.20 | 32 | 1006.8 |
| 20260505223051 | 26 | 237 | 9.7 | 22.5 | 0.00 | 0.20 | 0.20 | 31 | 1006.6 |
| 20260505221557 | 26 | 225 | 9.7 | 27.4 | 0.00 | 0.20 | 0.20 | 30 | 1006.4 |
| 20260505220104 | 27 | 234 | 14.5 | 25.7 | 0.00 | 0.20 | 0.20 | 30 | 1006.3 |
| 20260505214559 | 27 | 176 | 6.4 | 22.5 | 0.00 | 0.20 | 0.20 | 33 | 1006.4 |
| 20260505213048 | 27 | 210 | 11.3 | 27.4 | 0.00 | 0.20 | 0.20 | 32 | 1006.2 |
| 20260505211616 | 27 | 186 | 8.0 | 24.1 | 0.00 | 0.20 | 0.20 | 32 | 1006.0 |
| 20260505210048 | 27 | 143 | 9.7 | 29.0 | 0.00 | 0.20 | 0.20 | 33 | 1005.9 |
| 20260505204557 | 27 | 177 | 8.0 | 24.1 | 0.00 | 0.20 | 0.20 | 33 | 1005.9 |
| 20260505203045 | 27 | 213 | 8.0 | 29.0 | 0.00 | 0.20 | 0.20 | 33 | 1006.1 |
| 20260505201543 | 27 | 265 | 9.7 | 41.8 | 0.00 | 0.20 | 0.20 | 32 | 1006.3 |
| 20260505200042 | 27 | 218 | 9.7 | 24.1 | 0.00 | 0.20 | 0.20 | 34 | 1006.4 |
| 20260505194540 | 27 | 243 | 11.3 | 27.4 | 0.00 | 0.20 | 0.20 | 33 | 1006.4 |
| 20260505193039 | 27 | 200 | 11.3 | 27.4 | 0.00 | 0.20 | 0.20 | 34 | 1006.6 |
| 20260505191537 | 27 | 218 | 6.4 | 25.7 | 0.00 | 0.20 | 0.20 | 36 | 1006.7 |
| 20260505190036 | 27 | 239 | 8.0 | 22.5 | 0.00 | 0.20 | 0.20 | 35 | 1006.8 |
| 20260505184540 | 27 | 215 | 1.6 | 17.7 | 0.00 | 0.20 | 0.20 | 37 | 1006.9 |
| 20260505183030 | 27 | 255 | 6.4 | 17.7 | 0.00 | 0.20 | 0.20 | 38 | 1007.5 |
| 20260505181532 | 27 | 214 | 6.4 | 19.3 | 0.00 | 0.20 | 0.20 | 38 | 1007.6 |
| 20260505180026 | 27 | 217 | 9.7 | 24.1 | 0.00 | 0.20 | 0.20 | 39 | 1007.6 |
| 20260505174535 | 27 | 190 | 4.8 | 11.3 | 0.00 | 0.20 | 0.20 | 42 | 1007.7 |
| 20260505173020 | 26 | 216 | 6.4 | 20.9 | 0.00 | 0.20 | 0.20 | 43 | 1007.9 |
| 20260505171529 | 26 | 202 | 3.2 | 17.7 | 0.00 | 0.20 | 0.20 | 43 | 1007.9 |
| 20260505170016 | 26 | 238 | 4.8 | 14.5 | 0.00 | 0.20 | 0.20 | 44 | 1008.0 |
| 20260505164515 | 25 | 347 | 4.8 | 16.1 | 0.00 | 0.20 | 0.20 | 45 | 1008.4 |
| 20260505163014 | 26 | 233 | 3.2 | 16.1 | 0.00 | 0.20 | 0.20 | 46 | 1008.5 |
| 20260505161510 | 25 | 229 | 1.6 | 16.1 | 0.00 | 0.20 | 0.20 | 47 | 1008.8 |
| 20260505153101 | 23 | 164 | 3.2 | 11.3 | 0.00 | 0.20 | 0.20 | 52 | 1009.3 |
| 20260505151602 | 23 | 280 | 4.8 | 14.5 | 0.00 | 0.20 | 0.20 | 51 | 1009.4 |
| 20260505124519 | 12 | 135 | 0.0 | 0.0 | 0.00 | 0.20 | 0.20 | 95 | 1010.1 |
| 20260505123017 | 12 | 135 | 0.0 | 0.0 | 0.00 | 0.20 | 0.20 | 96 | 1010.1 |
| 20260505121512 | 11 | 135 | 0.0 | 4.8 | 0.20 | 0.20 | 0.20 | 96 | 1010.4 |
| 20260505120008 | 10 | 135 | 0.0 | 0.0 | 0.20 | 0.20 | 0.20 | 95 | 1010.4 |
| 20260505114508 | 8 | 135 | 0.0 | 4.8 | 0.20 | 0.20 | 0.20 | 95 | 1010.0 |
| 20260505113004 | 8 | 133 | 0.0 | 4.8 | 0.20 | 0.20 | 0.20 | 94 | 1009.8 |
| 20260505111504 | 8 | 193 | 0.0 | 1.6 | 0.00 | 0.00 | 0.00 | 94 | 1010.5 |
| 20260505101604 | 6 | 193 | 0.0 | 0.0 | 0.00 | 0.00 | 0.00 | 94 | 1010.0 |
| 20260505100058 | 6 | 193 | 0.0 | 0.0 | 0.00 | 0.00 | 0.00 | 93 | 1009.8 |
| 20260505094557 | 6 | 193 | 0.0 | 0.0 | 0.00 | 0.00 | 0.00 | 93 | 1009.7 |
| 20260505093056 | 6 | 193 | 0.0 | 0.0 | 0.00 | 0.00 | 0.00 | 93 | 1009.6 |
| 20260505091557 | 6 | 193 | 0.0 | 0.0 | 0.00 | 0.00 | 0.00 | 93 | 1009.5 |
| 20260505090057 | 6 | 193 | 0.0 | 0.0 | 0.00 | 0.00 | 0.00 | 93 | 1009.2 |
| 20260505084602 | 6 | 193 | 0.0 | 0.0 | 0.00 | 0.00 | 0.00 | 93 | 1009.2 |
| 20260505083105 | 6 | 193 | 0.0 | 0.0 | 0.00 | 0.00 | 0.00 | 92 | 1009.3 |
| 20260505081550 | 6 | 193 | 0.0 | 0.0 | 0.00 | 0.00 | 0.00 | 92 | 1009.4 |
| 20260505080054 | 7 | 193 | 0.0 | 0.0 | 0.00 | 0.00 | 0.00 | 92 | 1009.4 |
| 20260505074548 | 7 | 193 | 0.0 | 0.0 | 0.00 | 0.00 | 0.00 | 92 | 1009.3 |
| 20260505073055 | 7 | 193 | 0.0 | 0.0 | 0.00 | 0.00 | 0.00 | 92 | 1009.4 |
| 20260505071546 | 7 | 193 | 0.0 | 1.6 | 0.00 | 0.00 | 0.00 | 91 | 1009.4 |
| 20260505070045 | 7 | 193 | 0.0 | 0.0 | 0.00 | 0.00 | 0.00 | 91 | 1009.4 |
| 20260505064610 | 7 | 193 | 0.0 | 0.0 | 0.00 | 0.00 | 0.00 | 91 | 1009.4 |
| 20260505063042 | 7 | 193 | 0.0 | 0.0 | 0.00 | 0.00 | 0.00 | 90 | 1009.7 |
| 20260505061541 | 7 | 193 | 0.0 | 0.0 | 0.00 | 0.00 | 0.00 | 90 | 1009.6 |